Location: London
(51.5166°N, 0.1046°W)
Time: 13:04:28
(UTC+01:00)

ISS - Visible Passes

Search period start: 28 March 2017 00:00
Search period end: 07 April 2017 00:00
Orbit: 399 x 409 km, 51.6° (Epoch: 28 March)

Date Brightness Start Highest point End Pass type
(mag) Time Alt. Az. Time Alt. Az. Time Alt. Az.
28 Mar -2.0 21:33:18 10° SW 21:34:38 21° SSW 21:34:38 21° SSW visible
29 Mar -2.7 20:41:22 10° SSW 20:44:08 25° SSE 20:45:06 22° ESE visible
29 Mar -1.2 22:17:02 10° WSW 22:17:47 16° WSW 22:17:47 16° WSW visible
30 Mar -3.8 21:24:45 10° WSW 21:27:58 59° SSE 21:28:01 59° SSE visible
31 Mar -3.4 20:32:33 10° SW 20:35:39 42° SSE 20:38:05 15° E visible
31 Mar -2.4 22:08:43 10° W 22:10:45 35° W 22:10:45 35° W visible
01 Apr -4.0 21:16:20 10° WSW 21:19:36 82° SSE 21:20:39 40° E visible
01 Apr -0.9 22:52:49 10° W 22:53:19 14° W 22:53:19 14° W visible
02 Apr -3.8 20:23:59 10° WSW 20:27:13 65° SSE 20:30:27 10° E visible
02 Apr -3.3 22:00:24 10° W 22:03:06 58° W 22:03:06 58° W visible
03 Apr -3.9 21:07:58 10° W 21:11:14 86° N 21:12:50 28° E visible
03 Apr -1.3 22:44:27 10° W 22:45:28 19° W 22:45:28 19° W visible
04 Apr -3.8 20:15:31 10° W 20:18:48 86° SSE 20:22:05 10° E visible
04 Apr -3.9 21:52:00 10° W 21:55:08 78° WSW 21:55:08 78° WSW visible
05 Apr -3.9 20:59:33 10° W 21:02:50 88° N 21:04:45 23° E visible
05 Apr -1.6 22:36:03 10° W 22:37:23 21° W 22:37:23 21° W visible
06 Apr -3.8 21:43:33 10° W 21:46:48 60° SSW 21:46:59 58° S visible
